This is the latest recevied weather packets stored in our database for station/object OK1FET-4. If no packets are shown the sender has not sent any weather packets the latest 10 day(s).
| Time | Temp. | Humidity | Pressure | Rain* | Wind** | Luminosity | Snow |
|---|---|---|---|---|---|---|---|
| 1787843333 | 32.78° C | 37% | 1017.1 hPa | - | - | - | - |
| 1787843031 | 32.78° C | 37% | 1017.1 hPa | - | - | - | - |
| 1787842728 | 32.78° C | 37% | 1017 hPa | - | - | - | - |
| 1787842426 | 32.78° C | 37% | 1016.9 hPa | - | - | - | - |
| 1787842124 | 32.78° C | 37% | 1017 hPa | - | - | - | - |
| 1787841821 | 32.78° C | 38% | 1017 hPa | - | - | - | - |
| 1787841519 | 32.78° C | 37% | 1017 hPa | - | - | - | - |
| 1787841217 | 32.78° C | 37% | 1017 hPa | - | - | - | - |
| 1787840914 | 32.78° C | 37% | 1017.1 hPa | - | - | - | - |
| 1787840612 | 32.78° C | 37% | 1017.2 hPa | - | - | - | - |
| 1787840310 | 32.78° C | 37% | 1017.3 hPa | - | - | - | - |
| 1787840007 | 32.78° C | 36% | 1017.1 hPa | - | - | - | - |
| 1787839705 | 33.89° C | 36% | 1017.1 hPa | - | - | - | - |
| 1787839402 | 34.44° C | 36% | 1017.2 hPa | - | - | - | - |
| 1787839099 | 35° C | 36% | 1017.1 hPa | - | - | - | - |
| 1787838797 | 35° C | 36% | 1017.2 hPa | - | - | - | - |
| 1787838494 | 33.89° C | 37% | 1017.2 hPa | - | - | - | - |
| 1787838192 | 33.33° C | 37% | 1017.3 hPa | - | - | - | - |
| 1787837889 | 34.44° C | 37% | 1017.4 hPa | - | - | - | - |
| 1787837586 | 35° C | 37% | 1017.5 hPa | - | - | - | - |
| 1787837284 | 34.44° C | 37% | 1017.5 hPa | - | - | - | - |
| 1787836981 | 33.89° C | 37% | 1017.6 hPa | - | - | - | - |
| 1787836678 | 34.44° C | 38% | 1017.5 hPa | - | - | - | - |
| 1787836376 | 34.44° C | 37% | 1017.5 hPa | - | - | - | - |
| 1787836073 | 33.89° C | 38% | 1017.7 hPa | - | - | - | - |
* Rain since midnight (hover to see other rain measurements)
** Current wind speed in m/s (hover to see current wind gust speed)